Weather History for Mount Sterling, KY

Change the Weather History Date:

Wednesday, November 7, 2012

  Actual Average Record
Temperature  
Mean Temperature 43 °F -  
Max Temperature 51 °F 55 °F 55 °F (2013)
Min Temperature 35 °F 36 °F 33 °F (2013)
Degree Days  
Heating Degree Days 22    
Moisture  
Dew Point 35 °F    
Average Humidity 73    
Maximum Humidity 87    
Minimum Humidity 50    
Precipitation  
Precipitation 0.00 in - - ()
Sea Level Pressure  
Sea Level Pressure 29.96 in    
Wind  
Wind Speed 2 mph ()    
Max Wind Speed 6 mph    
Max Gust Speed -    
Visibility 10.0 miles    
Events      
Averages and records for this station are not official NWS values.
T = Trace of Precipitation, MM = Missing Value Source: Averaged Metar Reports

Daily Weather History Graph

Daily Weather History Graph

Search for Another Location

Airport:

Trip Planner

Search our weather history database for the weather conditions in past years. The results will help you decide how hot, cold, wet, or windy it might be!

Date:

Astronomy

Nov. 07, 2012 Rise Set
Actual Time 7:08 AM EST 5:30 PM EST
Civil Twilight 6:40 AM EST 5:57 PM EST
Nautical Twilight 6:09 AM EST 6:29 PM EST
Astronomical Twilight 5:38 AM EST 7:00 PM EST
Moon 12:08 AM EST (11/7) 1:32 PM EST (11/7)
Length of Visible Light 11h 16m
Length of Day
10h 21m
Last Quarter, 43% of the Moon is Illuminated
Nov 7
Last Quarter
Nov 13
New
Nov 20
First Quarter
Nov 28
Full
Dec 6
Last Quarter

Hourly Weather History & Observations

Time (EST) Temp. Windchill Dew Point Humidity Pressure Visibility Wind Dir Wind Speed Gust Speed Precip Events Conditions
12:15 AM 42.8 °F - 35.6 °F 76% 29.91 in 10.0 mi Calm Calm - N/A   Overcast
12:35 AM 42.8 °F - 35.6 °F 76% 29.90 in 10.0 mi Calm Calm - N/A   Overcast
12:55 AM 42.8 °F - 37.4 °F 81% 29.90 in 10.0 mi Calm Calm - N/A   Overcast
1:15 AM 41.0 °F - 37.4 °F 87% 29.90 in 10.0 mi Calm Calm - N/A   Overcast
1:35 AM 41.0 °F - 37.4 °F 87% 29.89 in 10.0 mi Calm Calm - N/A   Overcast
1:55 AM 41.0 °F - 37.4 °F 87% 29.89 in 10.0 mi Calm Calm - N/A   Overcast
2:15 AM 41.0 °F 39.0 °F 37.4 °F 87% 29.89 in 10.0 mi West 3.5 mph - N/A   Overcast
2:35 AM 41.0 °F 39.0 °F 37.4 °F 87% 29.89 in 10.0 mi West 3.5 mph - N/A   Overcast
2:55 AM 42.8 °F 40.1 °F 35.6 °F 76% 29.88 in 10.0 mi WNW 4.6 mph - N/A   Overcast
3:15 AM 42.8 °F 40.1 °F 35.6 °F 76% 29.88 in 10.0 mi NW 4.6 mph - N/A   Overcast
3:55 AM 41.0 °F 39.0 °F 35.6 °F 81% 29.88 in 10.0 mi WNW 3.5 mph - N/A   Overcast
4:15 AM 41.0 °F - 35.6 °F 81% 29.88 in 10.0 mi Calm Calm - N/A   Overcast
4:35 AM 41.0 °F - 35.6 °F 81% 29.88 in 10.0 mi Calm Calm - N/A   Overcast
4:55 AM 41.0 °F 39.0 °F 35.6 °F 81% 29.88 in 10.0 mi West 3.5 mph - N/A   Overcast
5:35 AM 41.0 °F 39.0 °F 35.6 °F 81% 29.89 in 10.0 mi West 3.5 mph - N/A   Overcast
5:55 AM 41.0 °F 39.0 °F 35.6 °F 81% 29.89 in 10.0 mi West 3.5 mph - N/A   Overcast
6:15 AM 41.0 °F 39.0 °F 37.4 °F 87% 29.89 in 10.0 mi West 3.5 mph - N/A   Overcast
6:35 AM 41.0 °F 38.0 °F 37.4 °F 87% 29.89 in 10.0 mi WNW 4.6 mph - N/A   Overcast
6:55 AM 41.0 °F - 37.4 °F 87% 29.90 in 10.0 mi Calm Calm - N/A   Overcast
7:15 AM 41.0 °F 39.0 °F 37.4 °F 87% 29.90 in 10.0 mi WNW 3.5 mph - N/A   Overcast
7:35 AM 41.0 °F 39.0 °F 37.4 °F 87% 29.91 in 10.0 mi WNW 3.5 mph - N/A   Overcast
7:55 AM 41.0 °F 38.0 °F 37.4 °F 87% 29.91 in 10.0 mi WNW 4.6 mph - N/A   Overcast
8:15 AM 41.0 °F - 37.4 °F 87% 29.92 in 10.0 mi Calm Calm - N/A   Overcast
8:35 AM 41.0 °F 38.0 °F 37.4 °F 87% 29.93 in 10.0 mi WNW 4.6 mph - N/A   Overcast
8:55 AM 41.0 °F - 37.4 °F 87% 29.93 in 10.0 mi Calm Calm - N/A   Overcast
9:15 AM 41.0 °F 38.0 °F 37.4 °F 87% 29.93 in 10.0 mi NW 4.6 mph - N/A   Overcast
9:35 AM 42.8 °F 41.1 °F 37.4 °F 81% 29.94 in 10.0 mi WNW 3.5 mph - N/A   Overcast
9:55 AM 42.8 °F 41.1 °F 37.4 °F 81% 29.95 in 10.0 mi West 3.5 mph - N/A   Overcast
10:15 AM 42.8 °F - 37.4 °F 81% 29.95 in 10.0 mi Calm Calm - N/A   Overcast
10:35 AM 42.8 °F - 37.4 °F 81% 29.95 in 10.0 mi Calm Calm - N/A   Overcast
10:55 AM 44.6 °F 43.1 °F 37.4 °F 76% 29.96 in 10.0 mi NNW 3.5 mph - N/A   Overcast
11:15 AM 44.6 °F - 37.4 °F 76% 29.96 in 10.0 mi Calm Calm - N/A   Overcast
11:35 AM 44.6 °F - 37.4 °F 76% 29.96 in 10.0 mi Calm Calm - N/A   Overcast
11:55 AM 46.4 °F 45.2 °F 37.4 °F 71% 29.96 in 10.0 mi WNW 3.5 mph - N/A   Overcast
12:15 PM 46.4 °F 45.2 °F 37.4 °F 71% 29.95 in 10.0 mi NNW 3.5 mph - N/A   Overcast
12:35 PM 46.4 °F - 37.4 °F 71% 29.95 in 10.0 mi Calm Calm - N/A   Overcast
12:55 PM 48.2 °F - 33.8 °F 58% 29.95 in 10.0 mi ENE 3.5 mph - N/A   Overcast
1:15 PM 48.2 °F - 33.8 °F 58% 29.95 in 10.0 mi NE 4.6 mph - N/A   Overcast
1:35 PM 48.2 °F - 33.8 °F 58% 29.94 in 10.0 mi ENE 5.8 mph - N/A   Overcast
1:55 PM 48.2 °F - 33.8 °F 58% 29.94 in 10.0 mi Calm Calm - N/A   Overcast
2:15 PM 50.0 °F - 32.0 °F 50% 29.94 in 10.0 mi East 3.5 mph - N/A   Scattered Clouds
2:35 PM 50.0 °F - 33.8 °F 54% 29.94 in 10.0 mi NE 4.6 mph - N/A   Mostly Cloudy
2:55 PM 50.0 °F - 33.8 °F 54% 29.95 in 10.0 mi North 3.5 mph - N/A   Scattered Clouds
3:15 PM 50.0 °F - 32.0 °F 50% 29.95 in 10.0 mi NNW 3.5 mph - N/A   Scattered Clouds
3:35 PM 50.0 °F - 32.0 °F 50% 29.95 in 10.0 mi Calm Calm - N/A   Scattered Clouds
3:55 PM 50.0 °F - 32.0 °F 50% 29.97 in 10.0 mi Calm Calm - N/A   Clear
4:15 PM 51.8 °F - 33.8 °F 50% 29.97 in 10.0 mi Calm Calm - N/A   Clear
4:35 PM 50.0 °F - 33.8 °F 54% 29.98 in 10.0 mi WNW 5.8 mph - N/A   Mostly Cloudy
4:55 PM 50.0 °F - 33.8 °F 54% 29.99 in 10.0 mi WNW 4.6 mph - N/A   Overcast
5:15 PM 46.4 °F 45.2 °F 33.8 °F 62% 30.00 in 10.0 mi WNW 3.5 mph - N/A   Overcast
5:35 PM 46.4 °F 45.2 °F 33.8 °F 62% 30.00 in 10.0 mi WNW 3.5 mph - N/A   Overcast
5:55 PM 44.6 °F 42.2 °F 33.8 °F 66% 30.01 in 10.0 mi WNW 4.6 mph - N/A   Scattered Clouds
6:15 PM 42.8 °F 40.1 °F 33.8 °F 70% 30.02 in 10.0 mi NW 4.6 mph - N/A   Clear
6:35 PM 42.8 °F 40.1 °F 33.8 °F 70% 30.03 in 10.0 mi NNW 4.6 mph - N/A   Clear
6:55 PM 41.0 °F 38.0 °F 32.0 °F 70% 30.04 in 10.0 mi NNW 4.6 mph - N/A   Clear
7:15 PM 41.0 °F 37.1 °F 32.0 °F 70% 30.04 in 10.0 mi NNW 5.8 mph - N/A   Clear
7:35 PM 42.8 °F 40.1 °F 32.0 °F 66% 30.05 in 10.0 mi NNW 4.6 mph - N/A   Clear
7:55 PM 42.8 °F 40.1 °F 32.0 °F 66% 30.05 in 10.0 mi NNW 4.6 mph - N/A   Clear
8:15 PM 42.8 °F 41.1 °F 30.2 °F 61% 30.05 in 10.0 mi NNW 3.5 mph - N/A   Clear
8:35 PM 41.0 °F 39.0 °F 30.2 °F 65% 30.06 in 10.0 mi NNW 3.5 mph - N/A   Clear
8:55 PM 41.0 °F 39.0 °F 30.2 °F 65% 30.06 in 10.0 mi NNW 3.5 mph - N/A   Clear
9:15 PM 41.0 °F 39.0 °F 30.2 °F 65% 30.07 in 10.0 mi NNW 3.5 mph - N/A   Clear
9:35 PM 41.0 °F - 30.2 °F 65% 30.07 in 10.0 mi Calm Calm - N/A   Clear
9:55 PM 37.4 °F 34.9 °F 30.2 °F 75% 30.08 in 10.0 mi NNW 3.5 mph - N/A   Clear
10:15 PM 37.4 °F 33.8 °F 30.2 °F 75% 30.08 in 10.0 mi NNW 4.6 mph - N/A   Clear
10:35 PM 39.2 °F 35.9 °F 30.2 °F 70% 30.08 in 10.0 mi North 4.6 mph - N/A   Clear
10:55 PM 39.2 °F 35.9 °F 30.2 °F 70% 30.09 in 10.0 mi North 4.6 mph - N/A   Clear
11:15 PM 37.4 °F 34.9 °F 30.2 °F 75% 30.09 in 10.0 mi North 3.5 mph - N/A   Clear
11:35 PM 35.6 °F 32.8 °F 30.2 °F 81% 30.09 in 10.0 mi NNW 3.5 mph - N/A   Clear
11:55 PM 35.6 °F 32.8 °F 30.2 °F 81% 30.10 in 10.0 mi NNW 3.5 mph - N/A   Clear